Tracking 29528 objects as of 12-Sep-2024
HD Live streaming from Space Station
objects crossing your sky now

SITRO-AIS-49

Track SITRO-AIS-49 now!
10-day predictions
SITRO-AIS-49 is classified as:


NORAD ID: 59060
Int'l Code: 2024-039K
Perigee: 462.1 km
Apogee: 476.8 km
Inclination: 97.4 °
Period: 93.8 minutes
Semi major axis: 6840 km
RCS: Unknown
Launch date: February 29, 2024
Source: (TBD)
Launch site: VOSTOCHNY COSMODROME (VOSTO)

Uplink (MHz):
Downlink (MHz): 401.160
Beacon (MHz):
Mode: 2k4 GMSK_USP
Call sign:
Status: Unknown

Your satellite tracking list
Your tracking list is empty




NASA's NSSDC Master Catalog

Two Line Element Set (TLE):
1 59060U 24039K   24256.53905836  .00123247  00000-0  36270-2 0  9995
2 59060  97.3978 218.2812 0010734 260.8485  99.1543 15.34522560 29967
Source of the keplerian elements: AFSPC